Regional Weather Roundup
Issued by NWS

Home | Current Version | Previous Version | Text Only | Print | Product List | Glossary On
Versions: 1 2 3 4 5 6 7 8 9 10 11 12 13 14 15 16 17 18 19 20 21 22 23 24 25 26 27 28 29 30 31 32 33 34 35 36 37 38 39 40 41 42 43 44 45 46 47 48 49 50
000
ASUS43 KMPX 311110
RWRMN
WEATHER ROUNDUP FOR MINNESOTA
NATIONAL WEATHER SERVICE TWIN CITIES/CHANHASSEN MN
500 AM CST SAT JAN 31 2015


NOTE: "FAIR" INDICATES FEW OR NO CLOUDS BELOW 12,000 FEET WITH NO
SIGNIFICANT WEATHER AND/OR OBSTRUCTIONS TO VISIBILITY. N/A MEANS
CURRENT SKY AND/OR WEATHER CONDITIONS ARE NOT AVAILABLE.

MNZ060>063-068>070-311200-
   Twin Cities Metro

CITY           SKY/WX    TMP DP  RH WIND       PRES   REMARKS
TWIN CITIES    CLOUDY    23  18  81 CALM      30.13S
ST PAUL        CLOUDY    24  21  88 S3        30.14S
CRYSTAL        CLEAR     20  16  84 CALM      30.12S FOG
BLAINE         MOCLDY    27  25  93 CALM      30.12S
LAKEVILLE      PTCLDY    19  19 100 CALM      30.13R
EDEN PRAIRIE   CLEAR     20  16  84 CALM      30.12R
SOUTH ST PAUL  CLOUDY    24  20  87 CALM      30.13S
LAKE ELMO      CLOUDY    28  23  80 CALM      30.13R
$$
MNZ001>005-007-008-013>017-022>024-027-028-311200-
   Northwest Minnesota

CITY           SKY/WX    TMP DP  RH WIND       PRES   REMARKS
BEMIDJI        CLOUDY    17  14  87 N15G21    30.19R WCI   3
HALLOCK        PTCLDY     5  -4  66 N16       30.35R WCI -14
ROSEAU         PTCLDY     3  -2  78 N13       30.29S WCI -14
WARROAD        CLEAR      3  -4  72 NW12      30.28R WCI -13
THIEF RVR FALL PTCLDY     7  -2  66 N18       30.28R WCI -12
CROOKSTON      PTCLDY    10   7  85 N16       30.31R WCI  -7
FOSSTON        CLOUDY    12   9  85 N17       30.24R WCI  -5
DETROIT LAKES  CLOUDY    19  19 100 N12G21    30.21R WCI   7
MOORHEAD       MIX PCPN  18  16  93 N20       30.28R WCI   1
PARK RAPIDS    CLOUDY    21  17  84 N12       30.16R WCI   9
MAHNOMEN       CLOUDY    15  11  83 N13       30.22R WCI   1
$$
MNZ006-009>011-018-025>026-311200-
   North Central Minnesota

CITY           SKY/WX    TMP DP  RH WIND       PRES   REMARKS
BAUDETTE       CLOUDY     4  -1  80 NW15      30.24R WCI -14
FLAG ISLAND    CLEAR      0  -6  78 NW20      30.26R WCI -22
INTL FALLS     LGT SNOW  12   7  80 NW12      30.17R WCI  -2
WASKISH        MOCLDY    12   9  85 NW10      30.22R WCI  -1
BIG FORK       FLURRIES  18  12  79 NW7       30.16R WCI   8
LONGVILLE      CLOUDY    21  18  86 N5        30.15R WCI  15
GRAND RAPIDS   CLOUDY    19  16  86 N16       30.12R WCI   5
CRANE LAKE     LGT SNOW  12   9  85 NW9       30.16R WCI   0
ORR            FLURRIES  14   9  79 CALM      30.11R
COOK           FLURRIES  16  10  79 NW6       30.12R WCI   7
WALKER         CLOUDY    19  15  84 N8        30.17R WCI   9
$$
MNZ012-019>021-037-311200-
   Northeast Minnesota

CITY           SKY/WX    TMP DP  RH WIND       PRES   REMARKS
DULUTH         CLOUDY    21  13  71 NW8       30.09R WCI  11
ELY            FLURRIES  14  10  85 NW8       30.08R WCI   3
HIBBING        CLOUDY    20  13  74 N12       30.11R WCI   8
EVELETH        CLOUDY    19  14  79 NW7       30.11R WCI  10
DULUTH HARBOR  CLOUDY    21  16  79 CALM      30.16R
TWO HARBORS    CLOUDY    21  14  73 CALM      30.08S
SILVER BAY     CLOUDY    19  14  79 CALM      30.08R
GRAND MARAIS     N/A     17  12  80 NW3       30.09S
G MARAIS ARPRT FLURRIES  10   7  85 CALM      30.00S
$$
MNZ029>031-032-039>041-046>048-054>057-064-311200-
   West Central Minnesota

CITY           SKY/WX    TMP DP  RH WIND       PRES   REMARKS
FERGUS FALLS   CLOUDY    19  16  86 N17       30.24R WCI   4
WHEATON        CLOUDY    19  18  93 N15       30.24R WCI   5
MORRIS         CLOUDY    21  19  93 N14       30.18R FOG     WCI   8
ALEXANDRIA     CLOUDY    22  19  89 N13       30.16R WCI  10
ELBOW LAKE     CLOUDY    20  18  93 N16       30.18R WCI   6
WADENA         CLOUDY    21  19  93 N9        30.15S WCI  11
GLENWOOD       CLOUDY    23  21  93 N9        30.15S FOG     WCI  13
APPLETON       CLOUDY    25  21  86 N18       30.18R WCI  11
BENSON         CLOUDY    25  21  86 NE9       30.17R WCI  15
ORTONVILLE     CLOUDY    23  19  86 N15       30.18S WCI  10
MADISON        CLOUDY    28  27  93 N16G22    30.17S WCI  17
WILLMAR        CLOUDY    25  21  86 N12       30.16R WCI  14
$$
MNZ033>034-036-042>043-049>051-058-059-311200-
   Central Minnesota

CITY           SKY/WX    TMP DP  RH WIND       PRES   REMARKS
ST CLOUD       CLOUDY    24  21  88 NW9       30.14R WCI  14
SAUK CENTRE    CLOUDY    22  21  95 N8        30.16S WCI  13
PAYNESVILLE    CLOUDY    20  20  97 NW9       30.15R WCI  10
AITKIN         CLOUDY    27  19  74 N8        30.13R WCI  18
PINE RIVER     CLOUDY    23  18  80 N8        30.18R WCI  14
BRAINERD       CLOUDY    24  19  81 N14       30.15R WCI  12
STAPLES        CLOUDY    21  19  93 N9        30.15S WCI  11
LONG PRAIRIE   CLOUDY    21  19  93 NW8       30.16R WCI  12
LITTLE FALLS   CLOUDY    25  21  86 NW7       30.16R WCI  17
LITCHFIELD     MOCLDY    25  25 100 N7        30.14R WCI  17
BUFFALO        CLEAR     16  14  92 CALM      30.14R
MAPLE LAKE     CLEAR     23  22  97 NW3       30.14R
$$
MNZ037-044-045-052-053-311200-
   East Central Minnesota

CITY           SKY/WX    TMP DP  RH WIND       PRES   REMARKS
PRINCETON      CLOUDY    27  23  86 NW6       30.13R WCI  20
MORA           CLOUDY    25  19  80 CALM      30.15R
CAMBRIDGE      CLOUDY    28  19  69 NW3       30.11S
RUSH CITY      CLOUDY    25  21  84 CALM      30.14R
MOOSE LAKE     CLOUDY    23  18  80 CALM      30.12R
HINCKLEY       CLOUDY    25  19  80 N3        30.13R
CLOQUET        CLOUDY    21  16  79 NW3       30.10S
MCGREGOR       CLOUDY    27  21  80 N8        30.13R WCI  18
$$
MNZ071>073-080-081-089-090-097-098-311200-
   Southwest Minnesota

CITY           SKY/WX    TMP DP  RH WIND       PRES   REMARKS
MONTEVIDEO     CLOUDY    25  25 100 NE13G18   30.17S WCI  13
GRANITE FALLS  MOCLDY    25  23  92 N13       30.18R WCI  13
CANBY          CLOUDY    27  26  95 N10       30.17S FOG     WCI  17
MARSHALL       CLOUDY    25  19  80 N16G22    30.17S WCI  12
REDWOOD FALLS  CLEAR     24  21  88 NW7       30.15R WCI  16
OLIVIA         CLEAR     21  19  93 N10       30.13S WCI  10
PIPESTONE      MOCLDY    27  25  93 NE12      30.10F WCI  16
WINDOM         PTCLDY    25  25 100 NW7       30.12S WCI  17
WORTHINGTON    MOCLDY    25  21  86 CALM      30.12S
JACKSON        PTCLDY    27  23  86 W6        30.12S WCI  20
TRACY          PTCLDY    26  24  93 N10       30.14S WCI  16
SLAYTON        MOCLDY    25  24  94 N6        30.12S WCI  18
$$
MNZ065>067-074>077-082>085-091>093-311200-
   South Central Minnesota

CITY           SKY/WX    TMP DP  RH WIND       PRES   REMARKS
MANKATO        CLEAR     25  19  80 SW5       30.12S WCI  19
NEW ULM        PTCLDY    21  19  93 W7        30.13S FOG     WCI  13
ST JAMES       PTCLDY    27  25  93 W8        30.14S WCI  18
FAIRMONT       PTCLDY    25  19  80 W3        30.11S
GLENCOE        CLEAR     23  22  97 NW5       30.12S FOG     WCI  16
FARIBAULT      CLEAR     21  19  93 CALM      30.13R
OWATONNA       CLEAR     23  19  86 SW3       30.12R
WASECA         CLEAR     21  19  93 CALM      30.14R
ALBERT LEA     PTCLDY    27  23  86 W3        30.12S
$$
MNZ078>079-086>088-094>096-311200-
   Southeast Minnesota

CITY           SKY/WX    TMP DP  RH WIND       PRES   REMARKS
ROCHESTER      FAIR      22  17  81 SW12      30.11S WCI  10
RED WING       CLOUDY    25  19  80 CALM      30.13S
STANTON        PTCLDY    22  19  89 CALM      30.12R
DODGE CENTER   PTCLDY    19  18  93 W8        30.11R WCI   9
WINONA         CLOUDY    25  19  80 CALM      30.16S
AUSTIN         CLEAR     19  18  93 S3        30.12S
PRESTON        PTCLDY    21  17  84 SW7       30.12S WCI  13
$$
ABBREVIATIONS USED IN REMARKS
   TC - TEMPERATURES IN CELSIUS
  WCI - WIND CHILL INDEX
   HX - HEAT INDEX
  VSB - VISIBILITY
$$


USA.gov is the U.S. government's official web portal to all federal, state and local government web resources and services.